Location: Sihaung
(22.8641°N, 94.0549°E)
Time: 16:30:13
(UTC+00:00)

H-2A R/B - Pass Details

Date: 03 March 2021
Orbit: 732 x 837 km, 98.2° (Epoch: 13 April)

Event Time Altitude Azimuth Distance (km) Brightness Sun altitude
Rises 12:51:39 0° 174° (S) 3,332 5.3 -15.4°
Reaches altitude 10° 12:53:59 10° 177° (S) 2,413 4.6 -16.0°
Maximum altitude 12:59:18 66° 259° (WSW) 907 2.6 -17.2°
Drops below altitude 10° 13:04:43 10° 341° (NNW) 2,449 4.8 -18.4°
Sets 13:07:07 0° 344° (NNW) 3,385 5.6 -19.0°
